Weather History for KTAZ - April, 2014

Change the Weather History Date:

Thursday, April 3, 2014

  Actual Average (KSPI) Record (KSPI)
Temperature  
Mean Temperature 54 °F 49 °F  
Max Temperature 59 °F 60 °F 86 °F (2011)
Min Temperature 50 °F 38 °F 20 °F (1936)
Degree Days  
Heating Degree Days 10 16  
Month to date heating degree days 50  
Since 1 July heating degree days 5032  
Cooling Degree Days 0 0  
Month to date cooling degree days 0  
Year to date cooling degree days 2  
Growing Degree Days 4 (Base 50)    
Moisture  
Dew Point 53 °F    
Average Humidity 96    
Maximum Humidity 100    
Minimum Humidity 82    
Precipitation  
Precipitation 1.31 in 0.10 in 1.87 in (1968)
Month to date precipitation 0.31  
Year to date precipitation 6.57  
Snow  
Snow 0.00 in 0.00 in 2.80 in (1899)
Month to date snowfall 0.1  
Since 1 July snowfall 20.7  
Snow Depth -    
Sea Level Pressure  
Sea Level Pressure 29.72 in    
Wind  
Wind Speed 11 mph (South)    
Max Wind Speed 22 mph    
Max Gust Speed 32 mph    
Visibility 6 miles    
Events Rain , Thunderstorm    
T = Trace of Precipitation, MM = Missing Value Source: NWS Daily Summary

Daily Weather History Graph

Daily Weather History Graph

Search for Another Location

Airport or City:

Trip Planner

Search our weather history database for the weather conditions in past years. The results will help you decide how hot, cold, wet, or windy it might be!

Date:

Astronomy

Apr. 03, 2014 Rise Set
Actual Time 6:38 AM CDT 7:23 PM CDT
Civil Twilight 6:11 AM CDT 7:50 PM CDT
Nautical Twilight 5:39 AM CDT 8:22 PM CDT
Astronomical Twilight 5:05 AM CDT 8:56 PM CDT
Moon 9:08 AM CDT (4/3) 11:41 PM CDT (4/3)
Length of Visible Light 13h 39m
Length of Day
12h 44m
Waxing Crescent, 17% of the Moon is Illuminated
Apr 3
Waxing Crescent
Apr 7
First Quarter
Apr 15
Full
Apr 22
Last Quarter
Apr 29
New

Hourly Weather History & Observations

Time (CDT) Temp. Dew Point Humidity Pressure Visibility Wind Dir Wind Speed Gust Speed Precip Events Conditions
12:15 AM 50.0 °F 50.0 °F 100% 29.89 in 3.0 mi East 10.4 mph - N/A Thunderstorm Overcast
12:35 AM 50.0 °F 50.0 °F 100% 29.88 in 2.5 mi East 12.7 mph 18.4 mph N/A   Overcast
12:55 AM 50.0 °F 50.0 °F 100% 29.87 in 3.0 mi ESE 15.0 mph - N/A   Overcast
1:15 AM 50.0 °F 50.0 °F 100% 29.85 in 3.0 mi ESE 13.8 mph - N/A   Overcast
1:35 AM 50.0 °F 50.0 °F 100% 29.82 in 3.0 mi ESE 16.1 mph - N/A Thunderstorm Overcast
1:55 AM 50.0 °F 50.0 °F 100% 29.80 in 3.0 mi ESE 15.0 mph - N/A Thunderstorm Overcast
2:15 AM 50.0 °F 50.0 °F 100% 29.79 in 3.0 mi ESE 13.8 mph - N/A   Overcast
2:35 AM 51.8 °F 50.0 °F 94% 29.79 in 2.5 mi ESE 11.5 mph 19.6 mph N/A   Overcast
2:55 AM 51.8 °F 50.0 °F 94% 29.78 in 2.5 mi ESE 10.4 mph - N/A   Overcast
3:15 AM 51.8 °F 51.8 °F 100% 29.77 in 2.0 mi ESE 11.5 mph - N/A   Overcast
3:35 AM 51.8 °F 51.8 °F 100% 29.75 in 1.5 mi ESE 10.4 mph - N/A Thunderstorm Overcast
3:55 AM 51.8 °F 51.8 °F 100% 29.74 in 1.5 mi ESE 11.5 mph - N/A Thunderstorm Overcast
4:15 AM 51.8 °F 51.8 °F 100% 29.72 in 1.2 mi ESE 10.4 mph - N/A Thunderstorm Overcast
4:35 AM 53.6 °F 51.8 °F 94% 29.70 in 0.8 mi SE 11.5 mph - N/A Thunderstorm Overcast
4:55 AM 53.6 °F 53.6 °F 100% 29.69 in 1.0 mi SE 13.8 mph 18.4 mph N/A Rain , Thunderstorm Light Thunderstorms and Rain
5:15 AM 55.4 °F 55.4 °F 100% 29.67 in 1.5 mi SE 11.5 mph - N/A Thunderstorm Overcast
5:35 AM 55.4 °F 55.4 °F 100% 29.66 in 1.8 mi SE 16.1 mph 19.6 mph N/A Thunderstorm Overcast
5:55 AM 55.4 °F 55.4 °F 100% 29.64 in 2.0 mi SE 16.1 mph 24.2 mph 0.07 in Rain , Thunderstorm Light Thunderstorms and Rain
6:15 AM 59.0 °F 59.0 °F 100% 29.64 in 2.5 mi SSE 16.1 mph - 0.08 in Rain , Thunderstorm Heavy Thunderstorms and Rain
6:35 AM 59.0 °F 59.0 °F 100% 29.69 in 3.0 mi WSW 12.7 mph 32.2 mph 0.25 in Rain , Thunderstorm Heavy Thunderstorms and Rain
7:15 AM 57.2 °F 55.4 °F 94% 29.72 in 7.0 mi West 8.1 mph - 0.03 in Rain , Thunderstorm Rain
7:35 AM 55.4 °F 55.4 °F 100% 29.72 in 5.0 mi West 5.8 mph - 0.07 in Rain Rain
7:55 AM 55.4 °F 55.4 °F 100% 29.72 in 5.0 mi WSW 5.8 mph - 0.12 in Rain Rain
8:15 AM 55.4 °F 55.4 °F 100% 29.70 in 4.0 mi Calm Calm - 0.04 in Rain Heavy Rain
8:35 AM 55.4 °F 53.6 °F 94% 29.65 in 2.0 mi ENE 6.9 mph - 0.11 in Rain Rain
8:55 AM 55.4 °F 55.4 °F 100% 29.66 in 3.0 mi Calm Calm - 0.13 in Rain , Thunderstorm Light Thunderstorms and Rain
9:15 AM 53.6 °F 53.6 °F 100% 29.68 in 7.0 mi North 4.6 mph - N/A   Light Drizzle
9:35 AM 53.6 °F 53.6 °F 100% 29.70 in 10.0 mi Calm Calm - N/A   Overcast
9:55 AM 53.6 °F 53.6 °F 100% 29.75 in 7.0 mi WNW 9.2 mph - 0.02 in Rain Rain
10:15 AM 53.6 °F 51.8 °F 94% 29.75 in 7.0 mi NW 8.1 mph - N/A Rain , Thunderstorm Light Thunderstorms and Rain
10:35 AM 51.8 °F 50.0 °F 94% 29.73 in 10.0 mi NNE 6.9 mph - 0.01 in Thunderstorm Drizzle
10:55 AM 51.8 °F 50.0 °F 94% 29.71 in 7.0 mi SE 5.8 mph - 0.03 in Rain Light Rain
11:15 AM 51.8 °F 51.8 °F 100% 29.69 in 3.0 mi SE 8.1 mph - 0.02 in Rain Light Rain
11:35 AM 53.6 °F 51.8 °F 94% 29.75 in 7.0 mi WNW 18.4 mph - 0.03 in Rain Light Rain
11:55 AM 50.0 °F 50.0 °F 100% 29.75 in 10.0 mi NNW 9.2 mph 20.7 mph 0.04 in Rain Light Rain
12:15 PM 50.0 °F 50.0 °F 100% 29.78 in 10.0 mi WNW 9.2 mph - N/A   Overcast
12:35 PM 50.0 °F 50.0 °F 100% 29.74 in 10.0 mi SE 3.5 mph - 0.01 in Rain Rain
12:55 PM 50.0 °F 50.0 °F 100% 29.61 in 10.0 mi East 16.1 mph - 0.01 in Rain Light Rain
1:15 PM 50.0 °F 50.0 °F 100% 29.60 in 10.0 mi ESE 8.1 mph - 0.01 in   Overcast
1:35 PM 51.8 °F 50.0 °F 94% 29.64 in 10.0 mi WNW 5.8 mph - 0.01 in   Overcast
1:55 PM 51.8 °F 51.8 °F 100% 29.64 in 10.0 mi West 6.9 mph - 0.01 in   Overcast
2:15 PM 51.8 °F 51.8 °F 100% 29.67 in 10.0 mi West 4.6 mph - N/A   Overcast
2:35 PM 51.8 °F 51.8 °F 100% 29.68 in 10.0 mi NW 4.6 mph - N/A   Overcast
2:55 PM 51.8 °F 51.8 °F 100% 29.68 in 10.0 mi NNW 5.8 mph - N/A   Overcast
3:15 PM 53.6 °F 51.8 °F 94% 29.72 in 10.0 mi NW 4.6 mph - N/A   Overcast
3:35 PM 53.6 °F 51.8 °F 94% 29.72 in 10.0 mi NNW 6.9 mph - N/A   Overcast
3:55 PM 53.6 °F 51.8 °F 94% 29.79 in 7.0 mi WSW 8.1 mph - N/A Rain Light Rain
4:15 PM 53.6 °F 53.6 °F 100% 29.72 in 5.0 mi SSE 13.8 mph 23.0 mph 0.02 in Rain , Thunderstorm Light Thunderstorms and Rain
4:35 PM 55.4 °F 53.6 °F 94% 29.77 in 4.0 mi SSW 10.4 mph - 0.07 in Rain , Thunderstorm Thunderstorms and Rain
4:55 PM 55.4 °F 55.4 °F 100% 29.76 in 7.0 mi South 13.8 mph - 0.11 in Rain Rain
5:15 PM 59.0 °F 55.4 °F 88% 29.72 in 7.0 mi South 21.9 mph 31.1 mph 0.03 in Rain Light Rain
5:35 PM 59.0 °F 55.4 °F 88% 29.72 in 5.0 mi South 18.4 mph 28.8 mph N/A Rain Rain
5:55 PM 59.0 °F 55.4 °F 88% 29.71 in 7.0 mi South 16.1 mph - 0.11 in Rain Rain
6:15 PM 59.0 °F 55.4 °F 88% 29.72 in 10.0 mi SSW 13.8 mph - 0.01 in   Overcast
6:35 PM 59.0 °F 53.6 °F 82% 29.70 in 10.0 mi South 9.2 mph - 0.02 in Rain Light Rain
6:55 PM 59.0 °F 53.6 °F 82% 29.66 in 10.0 mi SSE 5.8 mph - 0.02 in Rain Rain
7:15 PM 57.2 °F 53.6 °F 88% 29.66 in 10.0 mi South 11.5 mph - N/A   Overcast
7:35 PM 57.2 °F 53.6 °F 88% 29.67 in 10.0 mi SSW 9.2 mph - N/A Rain Light Rain
7:55 PM 57.2 °F 53.6 °F 88% 29.68 in 10.0 mi South 11.5 mph - 0.07 in Rain Light Rain
8:15 PM 57.2 °F 53.6 °F 88% 29.71 in 10.0 mi SW 10.4 mph - N/A Rain , Thunderstorm Light Thunderstorms and Rain
8:35 PM 59.0 °F 53.6 °F 82% 29.70 in 10.0 mi WSW 8.1 mph - 0.03 in Rain Light Rain
8:55 PM 59.0 °F 53.6 °F 82% 29.69 in 10.0 mi West 5.8 mph - 0.04 in Rain , Thunderstorm Light Thunderstorms and Rain
9:15 PM 57.2 °F 53.6 °F 88% 29.69 in 10.0 mi WSW 3.5 mph - 0.01 in Rain , Thunderstorm Light Thunderstorms and Rain
9:35 PM 55.4 °F 53.6 °F 94% 29.73 in 10.0 mi SW 9.2 mph - 0.03 in Rain , Thunderstorm Light Thunderstorms and Rain
10:55 PM 55.4 °F 53.6 °F 94% 29.70 in 10.0 mi South 11.5 mph - 0.21 in Rain Rain
11:15 PM 55.4 °F 53.6 °F 94% 29.69 in 10.0 mi South 12.7 mph - 0.03 in Rain Light Rain
11:35 PM 55.4 °F 53.6 °F 94% 29.63 in 10.0 mi SSE 15.0 mph 20.7 mph 0.04 in Rain Light Rain
11:55 PM 55.4 °F 53.6 °F 94% 29.61 in 10.0 mi SE 12.7 mph - 0.04 in   Scattered Clouds